Погода в Днепропетровске

Погода в Днепропетровске : погода сейчас, прогноз погоды и архив. Всё, что Вы хотите узнать о погоде в Днепропетровске!

Хотите узнать прогноз погоды в Днепропетровске? Тогда Вам сюда: Погода в Днепропетровске

Поиск расширенной информации на нашем сайте:

Полезная информация: Узи в хабаровске на http://www.whitecl.ru.

Другие новости

Новости СМИ2

Главная страница сайта

Новости сайта

02.10.2013

Напоминаем, что на нашем новом сайте вы можете получить высокодетализированные прогнозы погоды по пунктам России, СНГ и мира (включающие важные для авиации метеовеличины, такие как направление и скорость ветра, видимость, явления погоды, количество и форма облачности, нижняя и верхняя граница облачности), а также ознакомиться с разнообразными материалами по авиационной метеорологии и подборкой полезных ссылок на эту тему.

Сайт Метеоцентр.Азия посвящён разработке технологий оптимизации авиаметеорологического обслуживания, включая проектирование и перспективное создание нескольких автоматизированных авиаметеорологических систем:
- система выпуска высокодетальных прогностических карт явлений погоды для нижнего воздушного пространства по России и ближнему зарубежью;
- система верификации прогнозов TAF (выпускаемых синоптиками официальных АМСГ РФ и ближнего зарубежья) и AUTOTAF (выпускаемых сайтом Метеоцентр.Азия) - выявление ошибок, онлайн-сопоставление с фактической погодой METAR, автоматическое внесение коррективов в прогнозы при резком отклонении фактической погоды от прогноза, подсчёт оправдываемости прогнозов по элементам и в целом;
- система обработки, анализа и отображения авиаметеорологической информации для применения провайдерами метеорологической информации.

Рекомендуем: туры в пекин из хабаровска

Погода в Днепропетровске - сегодня

Время (UTC), дата Ветер
(°,м/с) 
Видим.   Явления Облачность Т
(°С)
Тd
(°С)
f(%) Тe
(°С)
Pmin
(гПа)
dP
(гПа)
Po
(мм)
O2
(г/м3)
Тmin Tmax R s Состояние
почвы
15 19.01.17 020 (С) 5000 м  дымка  ясно 
-9.8 -11.5 87 -12  1037.7  -0.3  764  320           
18 19.01.17 тихо ()   1900 м  дымка  ясно 
-11.5 -12.8 90 -12  1037.1  -0.7  763  322    -6.4       
21 19.01.17 тихо ()   <0100 м  переохл. туман  ?/?  
-15.3 -15.3 100 -15  1036.7  -0.7  763  327           
00 20.01.17 270 (З) 0200 м  переохл. туман  ?/?  
-16.5 -16.5 100 -19  1035.7  -1  762  328           
06 20.01.17 270 (З) 4100 м  дымка{туман}  5/0 верхняя 
[Ci fib]
-15.7 -17.2 88 -18  1032.3  -1.5  759  326  -17.4      22  равномерный
мокрый или
старый снег
100% 
09 20.01.17 260 (З) 10 км    4/0 верхняя 
[Ci fib]
-10.1 -13.5 76 -15  1030.6  -1.3  758  319           
12 20.01.17 260 (З) 10 км    9/9 540 м 
[Sc]
-6.8 -10.5 75 -12  1027.7  -2.6  757  314           
15 20.01.17 270 (З) 10 км    10/10 450 м 
[St]
-5.8 -8.8 79 -10  1026.7  -0.9  756  312           
18 20.01.17 280 (З) 10 км  {ливн. осадки}  10/10 400 м 
[St]
-5.1 -7.2 85 -8  1026.3  -0.3  756  311    -5.1  0.0     
21 20.01.17 280 (З) 1400 м  слаб. снег  10/9 100 м средняя 
[Frnb|As op]
-5.1 -6.1 93 -7  1025.9  -0.4  755  311           
00 21.01.17 270 (З) 2700 м  слаб. снег  10/9 100 м средняя 
[Frnb|As op]
-4.8 -5.8 93 -7  1025.1  -0.8  755  310      0.7     
03 21.01.17 260 (З) 3000 м  дымка{снег}  10/10 120 м 
[St]
-4.5 -5.4 93 -8  1023.4  -1.6  754  309           
06 21.01.17 270 (З) 2200 м  снежные зёрна  10/10 100 м 
[St]
-4.1 -4.6 96 -5  1023.3  -0.1  753  309  -5.3    0.7  22  равномерный
сухой снег
100% 
09 21.01.17 270 (З) 3000 м  дымка{снег}  10/10 120 м 
[St]
-3.4 -4.5 92 -7  1022.7  -0.5  753  308           
12 21.01.17 270 (З) 7000 м  дымка{снег}  10/10 210 м 
[St]
-2.2 -3.4 91 -6  1020.8  -1.8  752  306      0.0     
15 21.01.17 290 (З) 3500 м  слаб. снег  10/9 330 м средняя 
[Frnb|As op]
-1.3 -2.7 90 -4  1020.7  -0.1  752  305           
18 21.01.17 300 (СЗ) 8000 м  слаб. снег  10/9 300 м средняя 
[Frnb|As op]
-0.8 -2.1 91 -5  1021.5  0.9  752  304    -0.8  0.3     
21 21.01.17 320 (СЗ) 10 км  {снег}  10/10 800 м 
[Sc]
+0 -1.8 88 -3  1023.1  1.6  754  304           
00 22.01.17 350 (С) 10 км  {снег}  9/9 1200 м 
[Sc]
+0.2 -2.2 84 -4  1025.1  755  304      0.1     
03 22.01.17 010 (С) 10 км    3/3 1000 м 
[Sc]
-3.4 -6.6 78 -7  1028.2  2.8  757  310           
06 22.01.17 010 (С) 10 км    3/0 верхняя 
[Ci fib]
-6.4 -8.4 86 -9  1031.1  2.6  759  314  -6.5    0.1  22  равномерный
мокрый или
старый снег
100% 
09 22.01.17 250 (З) 10 км    3/0 верхняя 
[Ci fib]
-2.1 -6.8 70 -3  1032.5  1.7  760  309           
12 22.01.17 270 (З) 10 км    ясно 
-1.3 -6.8 66 -4  1031.8  -0.7  760  308           
15 22.01.17 280 (З) 10 км    ясно 
-4.7 -8.3 76 -6  1032.2  0.2  760  312           
18 22.01.17 290 (З) 10 км    ясно 
-7.5 -9.2 88 -10  1032.4  760  316    -0.7       
Время (UTC), дата Ветер
(°,м/с) 
Видим.   Явления Облачность Т
(°С)
Тd
(°С)
f(%) Тe
(°С)
Pmin
(гПа)
dP
(гПа)
Po
(мм)
O2
(г/м3)
Тmin Tmax R s Состояние
почвы

Для получения пояснительной информации подведите курсор к названию столбца.

ПОГОДА в Днепропетровске - архив

Всё, что Вы хотите узнать о погоде в Днепропетровске - удобно и подробно!

Выберите нужную дату (начиная с 1 января 2015* года) и нажмите кнопку "Найти".
Будут отображены архивные сводки погоды по пункту Днепропетровск, начиная с указанной даты.


Отображать данные в формате CSV (для использования в таблицах Excel)


Внимание! Наш архив погоды предназначен исключительно для личного некоммерческого использования в познавательных целях. Если Вам необходимы официальные справки о состоянии погоды (для производственных, юридических, коммерческих и т.п. целей), обращайтесь в органы Росгидромета.

*Примечание: данная дата относится к архиву по метеостанциям СССР (Россия, СНГ, Балтия).
Архив по метеостанциям Зарубежной Европы и Азии (кроме Китая) хранится 10 дней, по другим регионам земного шара (Китай, Африка, Америка, Австралия, Океания) - 1 день.

Днепропетровск - район местоположения метеостанции


Название, широта, долгота, высота метеостанции:
Днепропетровск (Кайдаки) 48.6°ш. 35°д. 143 м над ур. моря [Украина]

Дополнительная информация

В oтличие oт бoльшинства пoгoдных сайтoв мы публикуем пoдрoбную метеoинфoрмацию в детальнoм прoфессиoнальнoм фoрмате.

Характеристики температуры и влажнoсти вoздуха измеряются на высoте 2 м в тени вдали oт зданий и деревьев.
Скoрoсть ветра измеряется на высoте 10 м (на урoвне рoста челoвека скoрoсть ветра ниже в 1.5-2 раза). Если метеoстанция нахoдится в гoрoде или в лесу, тo скoрoсть ветра занижена на 2-4 м/с пo сравнению с oткрытым местoм. Скoрoсть ветра над акватoриями крупных рек и oзёр, а также на вершинах хoлмoв на 2-5 м/с выше, чем в oбычных услoвиях.
Атмoсфернoе давление в разных тoчках местнoсти мoжет значительнo oтличаться oт давления на метеoстанции, в зависимoсти oт услoвий рельефа (при пoдъёме на 10 м давление пoнижается примернo на 1 мм рт.ст.).